sat.trackr.live / text

‹ back to catalog

STARLINK-1695

NORAD 46329 · 2020-062E

PAYLOAD ACTIVE UNKNOWN

§ Identity

Operator
Country
US
Launch date
2020-09-03
Launch site
AFETR
Launch vehicle
Mass (kg)
RCS (m²)

Purposes: comms

External: N2YO · Heavens-Above · Gunter

§ Orbital elements

Epoch: 2026-08-22T23:47:45.739104Z

Period
87.94 min
Inclination
53.0121°
Eccentricity
0.0003701
Mean motion
16.37479547 rev/d
Perigee alt
170.1 km
Apogee alt
174.9 km
Semi-major
6,550.7 km
B*
7.4262e-4
RAAN
227.3495°
Arg perigee
315.5539°
Mean anomaly
44.5208°
Rev number
33,108

§ Raw data

STARLINK-16951 46329U 20062E   26234.99150161  .07563068  12338-4  74262-3 0  99932 46329  53.0121 227.3495 0003701 315.5539  44.5208 16.37479547331083

JSON: /api/v1/satellites/46329 · /tle

For live sub-satellite position, see the globe view (requires WebGL).

§ Visibility from observer

Set your observer location to see the next 7 days of passes ≥ 10°. The values pass through the URL so the page stays shareable.

No JS? Fill the form by hand. The geolocation button needs JavaScript.